Погода в Калинине

Россия / Еврейская автономная область     48°00′33″N   132°35′47″E
темп.,
°C
ветер,
м/с
пор.,
м/с
влажн.,
%
обл.,
%
осадки,
мм/ч
давл.,
гПа
погр.,
м
16 мая, вс
вс1601:00+11зюз615661 0.0 1003394
04:00+9зюз5137181 0.0 1003301
07:00+10зюз4127392 0.0 1003325
10:00+16зюз575146 0.0 1003727
13:00+21з693182 0.0 10022708
16:00+22з5827100 0.0 10013226
19:00+19зюз3646100 0.0 1000173
22:00+15ссв2253100 0.0 100111
17 мая, пн
пн1701:00+13сз11510 0.0 100211
04:00+11зюз11560 0.0 100210
07:00+12ююз23645 0.0 100283
10:00+18юз46425 0.0 1001533
13:00+22юз45340 0.0 10001375
16:00+24юз372814 0.0 9992423
19:00+22юз484172 0.0 998247
22:00+18сз22555 0.0 100038
18 мая, вт
вт1801:00+15з11600 0.0 100011
04:00+13ююз34671 0.0 100055
07:00+14ююз3136991 0.0 1000379
10:00+21юз6134171 0.0 999920
13:00+26юз81430100 0.0 9981823
16:00+28юз8142960 0.0 9963164
19:00+24зюз51139100 0.0 997486
22:00+15ссз4106115 0.1 1001338
19 мая, ср
ср1901:00+14ссз226952 0.2 100238
04:00+13ссв2273100 0.2 100458
07:00+14всв127625 0.1 100698
10:00+18юв2255100 0.1 1006896
13:00+18з3457100 0.2 10061077
16:00+20зюз3651100 0.8 10051250
19:00+17зюз2565100 0.0 1006239
22:00+13ююз238651 0.1 100756
20 мая, чт
чт2001:00+12ю22925 0.0 100727
04:00+11юв1194100 0.0 100711
07:00+13юв1186100 0.0 100757
10:00+17ююв236754 0.0 1006565
13:00+22юз3556100 0.0 10051328
16:00+26юз6114126 0.0 10022202
19:00+24ссв235371 0.0 1002142
22:00+16св3483100 0.0 100486